Regional Weather Roundup
Issued by NWS

Home | Current Version | Previous Version | Text Only | Print | Product List | Glossary On
Versions: 1 2 3 4 5 6 7 8 9 10 11 12 13 14 15 16 17 18 19 20 21 22 23 24 25 26 27 28 29 30 31 32 33 34 35 36 37 38 39 40 41 42 43 44 45 46 47 48 49 50
000
ASUS46 KSEW 060410
RWRWA

WASHINGTON REGIONAL WEATHER ROUNDUP
NATIONAL WEATHER SERVICE SEATTLE WA
900 PM PDT TUE MAY 05 2015

NOTE:"FAIR" INDICATES FEW OR NO CLOUDS BELOW 12,000 FEET WITH NO
SIGNIFICANT WEATHER AND/OR OBSTRUCTIONS TO VISIBILITY.

WAZ505-507>509-060500-
SEATTLE, TACOMA, EVERETT, AND VICINITY

CITY           SKY/WX    TMP DP  RH WIND       PRES   REMARKS
EVERETT        CLOUDY    46  43  89 S3        30.10R
BOEING FIELD   CLOUDY    50  42  74 E7        30.11R
RENTON         LGT RAIN  48  43  82 CALM      30.11S
SEATAC AIRPORT LGT RAIN  47  44  90 E10       30.10S
JBLM-MCCHORD   CLOUDY    47  46  98 SE3       30.10R
PUYALLUP       LGT RAIN  46  46 100 VRB3      30.10R
BREMERTON      CLOUDY    46  45  93 N6        30.13R
JBLM-FT LEWIS  CLOUDY    46  46  99 SE5       30.09R
TACOMA NARROWS CLOUDY    47  43  86 NE6       30.10S
$$

WAZ001-503-506-510-514-515-060500-
NORTH INTERIOR

CITY           SKY/WX    TMP DP  RH WIND       PRES   REMARKS
BELLINGHAM     PTCLDY    51  44  77 S5        30.07S
FRIDAY HARBOR  CLOUDY    48  42  80 VRB5      30.08S
EASTSOUND      PTCLDY    50  43  76 CALM      30.06S
PORT ANGELES   MOCLDY    47  42  83 W8        30.09S
NAS WHIDBEY    MOCLDY    50  41  71 S5        30.10R
ARLINGTON      MOCLDY    45  37  76 S6        30.12R
BURLINGTON     MOCLDY    48  43  81 SW6       30.10R
$$

WAZ020-022-039-040-504-511-512-060500-
SOUTHWEST INTERIOR

CITY           SKY/WX    TMP DP  RH WIND       PRES   REMARKS
SHELTON        LGT RAIN  47  43  86 NW5       30.09R
OLYMPIA        CLOUDY    50  39  66 W3        30.10R
CHEHALIS       MOCLDY    52  43  71 CALM      30.10R
KELSO          PTCLDY    52  39  62 NW3       30.14R
VANCOUVER      MOCLDY    55  37  50 NW7       30.09R
SCAPPOOSE, OR  CLEAR     53  38  56 NW5       30.09R
PORTLAND, OR   MOCLDY    55  40  56 N7        30.09R
$$

WAZ021-516-517-060500-
WASHINGTON COAST

CITY           SKY/WX    TMP DP  RH WIND       PRES   REMARKS
FORKS          PTCLDY    48  45  89 CALM      30.09R
HOQUIAM        CLOUDY    50  47  89 N3        30.10S
ASTORIA, OR    PTCLDY    49  44  83 CALM      30.11R
$$

WAZ019-023-024-040-518-519-060500-
CASCADE MOUNTAINS AND COLUMBIA GORGE

CITY           SKY/WX    TMP DP  RH WIND       PRES   REMARKS
TROUTDALE, OR  MOCLDY    55  40  56 W3        30.08R
THE DALLES, OR CLEAR     52  38  58 W12       30.04R
$$

WAZ026-027-041>044-520-521-060500-
EAST SLOPES

CITY           SKY/WX    TMP DP  RH WIND       PRES   REMARKS
OMAK           MOCLDY    48  34  58 NW10      29.96R
WENATCHEE      MOCLDY    54  27  35 NW14      29.97R
ELLENSBURG     MOCLDY    47  31  53 NW14      29.99S
YAKIMA         PTCLDY    51  29  42 W8        30.00R
$$

WAZ028-034-035-060500-
COLUMBIA BASIN

CITY           SKY/WX    TMP DP  RH WIND       PRES   REMARKS
EPHRATA        MOCLDY    56  24  29 NW15      29.94R
MOSES LAKE     CLOUDY    56  31  38 W8        29.96R
PASCO          PTCLDY    53  32  44 NW8       29.98R
HERMISTON, OR  MOCLDY    56  32  40 W9        29.98R
$$

WAZ036>038-060500-
NORTHEAST WASHINGTON

CITY           SKY/WX    TMP DP  RH WIND       PRES   REMARKS
SPOKANE GEIGER PTCLDY    51  19  28 SW8       29.93R
SPOKANE FELTS  PTCLDY    50  27  40 CALM      29.94R
FAIRCHILD AFB  CLEAR     47  18  31 SW7       29.92R
COEURDALENE,ID PTCLDY    48  25  40 S8        29.95R
DEER PARK      PTCLDY    49  22  34 SW9       29.92R
$$

WAZ029>033-060500-
SOUTHEAST WASHINGTON

CITY           SKY/WX    TMP DP  RH WIND       PRES   REMARKS
PULLMAN        CLEAR     49  29  46 CALM      29.97R
LEWISTON, ID   PTCLDY    58  27  30 CALM      29.95R
WALLA WALLA    PTCLDY    57  29  34 SW12      29.96R
PENDLETON, OR  CLEAR     50  31  48 W12       29.98R
$$


USA.gov is the U.S. government's official web portal to all federal, state and local government web resources and services.